This demonstration page uses our WeatherBlox Daily Observations layout. Learn more.

Left ArrowRight Arrow

Hourly Observations for August 28, 2016

Temp ( °F °C ) Dew Point ( °F °C ) Humidity (%) Winds ( mph kmh ) Pressure ( in mb ) Visibility ( mi km ) Precip ( " mm )
12:14 am 00:14 Clear 72 22 70 21 94 94 SSE 3 6 30.15 1021 10 16.0934 N/A
12:34 am 00:34 Clear 72 22 70 21 94 94 SSE 6 9 30.15 1021 10 16.0934 N/A
12:54 am 00:54 Clear 73 23 72 22 94 94 SSE 5 7 30.12 1020 10 16.0934 N/A
1:14 am 01:14 Clear 72 22 72 22 100 100 SSE 5 7 30.15 1021 10 16.0934 N/A
1:34 am 01:34 Clear 72 22 70 21 94 94 SSE 6 9 30.15 1021 10 16.0934 N/A
1:55 am 01:55 Clear 72 22 70 21 94 94 Calm 30.15 1021 10 16.0934 N/A
2:14 am 02:14 Clear 72 22 70 21 94 94 Calm 30.15 1021 10 16.0934 N/A
2:34 am 02:34 Clear 70 21 68 20 94 94 Calm 30.15 1021 10 16.0934 N/A
2:55 am 02:55 Clear 68 20 68 20 100 100 Calm 30.15 1021 7 11.26538 N/A
3:14 am 03:14 Clear 68 20 68 20 100 100 Calm 30.15 1021 7 11.26538 N/A
3:34 am 03:34 Clear 68 20 68 20 100 100 SSE 6 9 30.15 1021 7 11.26538 N/A
3:55 am 03:55 Clear 68 20 68 20 100 100 Calm 30.15 1021 7 11.26538 N/A
4:14 am 04:14 Clear 68 20 66 19 94 94 Calm 30.15 1021 7 11.26538 N/A
4:34 am 04:34 Clear 66 19 66 19 100 100 Calm 30.15 1021 5 8.0467 N/A
4:55 am 04:55 Clear 68 20 68 20 100 100 Calm 30.15 1021 5 8.0467 N/A
5:14 am 05:14 Clear 68 20 68 20 100 100 Calm 30.15 1021 7 11.26538 N/A
5:34 am 05:34 Clear 66 19 66 19 100 100 E 3 6 30.15 1021 5 8.0467 N/A
5:55 am 05:55 Clear 66 19 66 19 100 100 ESE 6 9 30.18 1022 2.5 4.02335 N/A
6:14 am 06:14 Clear 68 20 68 20 100 100 Calm 30.18 1022 5 8.0467 N/A
6:34 am 06:34 Clear 68 20 68 20 100 100 Calm 30.18 1022 5 8.0467 N/A
6:54 am 06:54 Clear 66 19 66 19 100 100 Calm 30.18 1022 7 11.26538 N/A
7:14 am 07:14 Sunny 66 19 66 19 100 100 Calm 30.18 1022 7 11.26538 N/A
7:35 am 07:35 Sunny 66 19 66 19 100 100 Calm 30.18 1022 10 16.0934 N/A
7:54 am 07:54 Sunny 68 20 68 20 100 100 Calm 30.18 1022 4 6.43736 N/A
8:14 am 08:14 Partly Cloudy 70 21 70 21 100 100 SE 3 6 30.18 1022 5 8.0467 N/A
8:35 am 08:35 Mostly Cloudy 72 22 70 21 94 94 SE 3 6 30.18 1022 7 11.26538 N/A
8:54 am 08:54 Mostly Cloudy 73 23 72 22 94 94 Calm 30.15 1021 7 11.26538 N/A
9:14 am 09:14 Partly Cloudy 73 23 72 22 94 94 Calm 30.15 1021 10 16.0934 N/A
9:35 am 09:35 Sunny 75 24 73 23 94 94 Calm 30.15 1021 10 16.0934 N/A
9:54 am 09:54 Sunny 77 25 73 23 89 89 Calm 30.15 1021 10 16.0934 N/A
10:14 am 10:14 Sunny 79 26 73 23 84 84 Calm 30.15 1021 10 16.0934 N/A
10:35 am 10:35 Sunny 81 27 75 24 84 84 ESE 3 6 30.15 1021 10 16.0934 N/A
10:54 am 10:54 Partly Cloudy 81 27 75 24 84 84 Calm 30.15 1021 10 16.0934 N/A
11:14 am 11:14 Partly Cloudy 82 28 75 24 79 79 Calm 30.15 1021 10 16.0934 N/A
11:35 am 11:35 Partly Cloudy 81 27 75 24 84 84 Calm 30.15 1021 10 16.0934 N/A
11:54 am 11:54 Mostly Cloudy 84 29 75 24 74 74 E 3 6 30.15 1021 10 16.0934 N/A
12:14 pm 12:14 Partly Cloudy 84 29 73 23 70 70 ESE 3 6 30.15 1021 10 16.0934 N/A
12:35 pm 12:35 Partly Cloudy 82 28 75 24 79 79 Calm 30.15 1021 10 16.0934 N/A
12:54 pm 12:54 Partly Cloudy 84 29 75 24 74 74 E 5 7 30.15 1021 10 16.0934 N/A
1:14 pm 13:14 Partly Cloudy 86 30 73 23 66 66 NE 3 6 30.15 1021 10 16.0934 N/A
1:34 pm 13:34 Partly Cloudy 84 29 73 23 70 70 Calm 30.15 1021 10 16.0934 N/A
1:54 pm 13:54 Partly Cloudy 86 30 73 23 66 66 Calm 30.15 1021 10 16.0934 N/A
2:14 pm 14:14 Partly Cloudy 86 30 73 23 66 66 Calm 30.15 1021 10 16.0934 N/A
2:34 pm 14:34 Partly Cloudy 86 30 75 24 70 70 Calm 30.15 1021 10 16.0934 N/A
2:54 pm 14:54 Mostly Cloudy 86 30 73 23 66 66 Calm 30.15 1021 10 16.0934 N/A
3:15 pm 15:15 Cloudy 86 30 73 23 66 66 Calm 30.15 1021 10 16.0934 N/A
3:34 pm 15:34 Mostly Cloudy 88 31 75 24 66 66 SE 5 7 30.15 1021 10 16.0934 N/A
3:54 pm 15:54 Partly Cloudy 88 31 73 23 62 62 E 3 6 30.15 1021 10 16.0934 N/A
4:15 pm 16:15 Sunny 88 31 72 22 59 59 NW 7 11 30.12 1020 10 16.0934 N/A
4:34 pm 16:34 Partly Cloudy 88 31 75 24 66 66 NNW 6 9 30.15 1021 10 16.0934 N/A
4:54 pm 16:54 Sunny 84 29 75 24 74 74 N 5 7 30.12 1020 10 16.0934 N/A
5:15 pm 17:15 Partly Cloudy 86 30 73 23 66 66 Calm 30.12 1020 10 16.0934 N/A
5:34 pm 17:34 Partly Cloudy 84 29 73 23 70 70 Calm 30.15 1021 10 16.0934 N/A
5:54 pm 17:54 Partly Cloudy 82 28 77 25 84 84 Calm 30.12 1020 10 16.0934 N/A
6:14 pm 18:14 Sunny 81 27 73 23 79 79 W 9 15 30.12 1020 10 16.0934 N/A
6:34 pm 18:34 Partly Cloudy 79 26 75 24 89 89 W 6 9 30.12 1020 10 16.0934 N/A
6:55 pm 18:55 Cloudy 79 26 75 24 89 89 NW 5 7 30.12 1020 5 8.0467 N/A
7:14 pm 19:14 Partly Cloudy 79 26 75 24 89 89 NNW 3 6 30.12 1020 10 16.0934 N/A
7:34 pm 19:34 Sunny 77 25 73 23 89 89 Calm 30.12 1020 10 16.0934 N/A
7:55 pm 19:55 Sunny 77 25 73 23 89 89 NNW 3 6 30.12 1020 10 16.0934 N/A
8:14 pm 20:14 Partly Cloudy 77 25 72 22 83 83 N 9 15 30.15 1021 10 16.0934 N/A
8:34 pm 20:34 Partly Cloudy 77 25 72 22 83 83 NNE 8 13 30.15 1021 10 16.0934 N/A
8:55 pm 20:55 Clear 73 23 70 21 89 89 NE 9 15 30.15 1021 10 16.0934 N/A
9:14 pm 21:14 Clear 73 23 70 21 89 89 E 6 9 30.15 1021 10 16.0934 N/A
9:35 pm 21:35 Clear 72 22 68 20 88 88 E 6 9 30.18 1022 10 16.0934 N/A
9:54 pm 21:54 Clear 72 22 68 20 88 88 E 5 7 30.18 1022 10 16.0934 N/A
10:14 pm 22:14 Clear 72 22 68 20 88 88 ESE 7 11 30.18 1022 10 16.0934 N/A
10:35 pm 22:35 Partly Cloudy 73 23 68 20 83 83 ESE 13 20 30.15 1021 10 16.0934 N/A
10:54 pm 22:54 Partly Cloudy 73 23 68 20 83 83 SE 9 15 30.15 1021 10 16.0934 N/A
11:14 pm 23:14 Clear 72 22 68 20 88 88 SSE 7 11 30.18 1022 10 16.0934 N/A
11:35 pm 23:35 Clear 72 22 68 20 88 88 SSE 6 9 30.18 1022 10 16.0934 N/A
11:54 pm 23:54 Clear 72 22 68 20 88 88 S 7 11 30.18 1022 10 16.0934 N/A

Powered by AerisWeather